TimeCST,TemperatureF,Dew PointF,Humidity,Sea Level PressureIn,VisibilityMPH,Wind Direction,Wind SpeedMPH,Gust SpeedMPH,PrecipitationIn,Events,Conditions,WindDirDegrees,DateUTC
12:53 AM,37.0,19.0,48,29.81,10.0,SSE,6.9,-,N/A,,Clear,160,2012-11-26 06:53:00
1:53 AM,37.9,19.0,47,29.81,10.0,SE,3.5,-,N/A,,Clear,130,2012-11-26 07:53:00
2:53 AM,34.0,19.9,56,29.83,10.0,Calm,Calm,-,N/A,,Clear,0,2012-11-26 08:53:00
3:53 AM,30.9,18.0,59,29.87,10.0,NNW,6.9,-,N/A,,Clear,330,2012-11-26 09:53:00
4:53 AM,30.9,19.0,61,29.90,10.0,North,9.2,-,N/A,,Clear,350,2012-11-26 10:53:00
5:53 AM,30.0,21.0,69,29.94,10.0,North,6.9,-,N/A,,Clear,360,2012-11-26 11:53:00
6:53 AM,30.0,23.0,75,30.01,10.0,NNW,9.2,-,N/A,,Clear,340,2012-11-26 12:53:00
7:53 AM,28.9,21.9,75,30.07,10.0,North,16.1,-,N/A,,Clear,350,2012-11-26 13:53:00
8:53 AM,32.0,25.0,75,30.13,10.0,North,12.7,-,N/A,,Clear,350,2012-11-26 14:53:00
9:53 AM,36.0,26.1,67,30.14,10.0,NNW,18.4,21.9,N/A,,Clear,340,2012-11-26 15:53:00
10:53 AM,42.1,27.0,55,30.17,10.0,North,19.6,-,N/A,,Clear,360,2012-11-26 16:53:00
11:53 AM,44.1,27.0,51,30.19,10.0,North,20.7,26.5,N/A,,Clear,360,2012-11-26 17:53:00
12:53 PM,46.0,27.0,47,30.20,10.0,NNE,23.0,28.8,N/A,,Clear,20,2012-11-26 18:53:00
1:53 PM,46.9,27.0,46,30.21,10.0,North,23.0,29.9,N/A,,Clear,10,2012-11-26 19:53:00
2:53 PM,46.0,27.0,47,30.24,10.0,North,26.5,31.1,N/A,,Clear,10,2012-11-26 20:53:00
3:53 PM,45.0,27.0,49,30.26,10.0,North,25.3,31.1,N/A,,Clear,10,2012-11-26 21:53:00
4:53 PM,42.1,26.1,53,30.30,10.0,North,23.0,29.9,N/A,,Clear,10,2012-11-26 22:53:00
5:53 PM,36.0,24.1,62,30.35,10.0,North,13.8,-,N/A,,Clear,10,2012-11-26 23:53:00
6:53 PM,34.0,21.9,61,30.39,10.0,North,13.8,-,N/A,,Clear,360,2012-11-27 00:53:00
7:53 PM,30.9,19.9,64,30.42,10.0,North,8.1,-,N/A,,Clear,360,2012-11-27 01:53:00
8:53 PM,28.0,19.0,69,30.44,10.0,North,9.2,-,N/A,,Clear,350,2012-11-27 02:53:00
9:53 PM,27.0,18.0,69,30.43,10.0,North,5.8,-,N/A,,Clear,360,2012-11-27 03:53:00
10:53 PM,26.1,18.0,71,30.43,10.0,North,8.1,-,N/A,,Clear,360,2012-11-27 04:53:00
11:53 PM,26.1,18.0,71,30.45,10.0,NNW,6.9,-,N/A,,Clear,340,2012-11-27 05:53:00